| time (UTC) | temp F | wind direction | speed knots | gust knots | rain 1hr in | rain 24hr in | rain mn in | humidity % | barometer mb |
| 20260505015008 | 73 | 115 | 4.3 | 7.8 | 0.00 | 0.00 | 0.00 | 100 | 1017.9 |
| 20260505014740 | 73 | 104 | 3.5 | 7.0 | 0.00 | 0.00 | 0.00 | 100 | 1017.8 |
| 20260505014551 | 73 | 115 | 4.3 | 7.8 | 0.00 | 0.00 | 0.00 | 100 | 1017.9 |
| 20260505014051 | 73 | 104 | 3.5 | 7.0 | 0.00 | 0.00 | 0.00 | 100 | 1017.8 |
| 20260505013935 | 74 | 94 | 3.5 | 6.1 | 0.00 | 0.00 | 0.00 | 100 | 1017.6 |
| 20260505013557 | 73 | 71 | 4.3 | 9.6 | 0.00 | 0.00 | 0.00 | 100 | 1017.4 |
| 20260505013551 | 74 | 94 | 3.5 | 6.1 | 0.00 | 0.00 | 0.00 | 100 | 1017.6 |
| 20260505013220 | 73 | 71 | 4.3 | 9.6 | 0.00 | 0.00 | 0.00 | 100 | 1017.4 |
| 20260505013217 | 73 | 85 | 3.5 | 7.0 | 0.00 | 0.00 | 0.00 | 100 | 1017.6 |
| 20260505013051 | 73 | 71 | 4.3 | 9.6 | 0.00 | 0.00 | 0.00 | 100 | 1017.4 |
| 20260505012551 | 73 | 85 | 3.5 | 7.0 | 0.00 | 0.00 | 0.00 | 100 | 1017.6 |
| 20260505012051 | 73 | 57 | 1.7 | 7.0 | 0.00 | 0.00 | 0.00 | 100 | 1017.7 |
| 20260505012012 | 74 | 108 | 2.6 | 7.0 | 0.00 | 0.00 | 0.00 | 100 | 1017.6 |
| 20260505011551 | 74 | 108 | 2.6 | 7.0 | 0.00 | 0.00 | 0.00 | 100 | 1017.6 |
| 20260505011137 | 74 | 118 | 5.2 | 7.0 | 0.00 | 0.00 | 0.00 | 100 | 1017.3 |
| 20260505011051 | 74 | 81 | 5.2 | 7.0 | 0.00 | 0.00 | 0.00 | 100 | 1017.4 |
| 20260505010551 | 74 | 118 | 5.2 | 7.0 | 0.00 | 0.00 | 0.00 | 100 | 1017.3 |
| 20260505010051 | 74 | 88 | 4.3 | 6.1 | 0.00 | 0.00 | 0.00 | 100 | 1017.3 |
| 20260505005551 | 74 | 115 | 3.5 | 8.7 | 0.00 | 0.00 | 0.00 | 100 | 1017.3 |
| 20260505005138 | 75 | 88 | 6.1 | 8.7 | 0.00 | 0.00 | 0.00 | 100 | 1017.3 |
| 20260505005051 | 75 | 91 | 4.3 | 7.8 | 0.00 | 0.00 | 0.00 | 100 | 1017.2 |
| 20260505004551 | 75 | 88 | 6.1 | 8.7 | 0.00 | 0.00 | 0.00 | 100 | 1017.3 |
| 20260505004051 | 75 | 119 | 2.6 | 9.6 | 0.00 | 0.00 | 0.00 | 100 | 1017.1 |
| 20260505003948 | 76 | 102 | 4.3 | 8.7 | 0.00 | 0.00 | 0.00 | 100 | 1017.1 |
| 20260505003551 | 76 | 126 | 5.2 | 9.6 | 0.00 | 0.00 | 0.00 | 100 | 1017.2 |
| 20260505003051 | 76 | 102 | 4.3 | 8.7 | 0.00 | 0.00 | 0.00 | 100 | 1017.1 |
| 20260505002551 | 76 | 111 | 6.1 | 8.7 | 0.00 | 0.00 | 0.00 | 100 | 1017.1 |
| 20260505002051 | 76 | 116 | 2.6 | 11.3 | 0.00 | 0.00 | 0.00 | 100 | 1017.1 |
| 20260505002049 | 77 | 119 | 4.3 | 7.8 | 0.00 | 0.00 | 0.00 | 100 | 1016.9 |
| 20260505001551 | 77 | 119 | 4.3 | 7.8 | 0.00 | 0.00 | 0.00 | 100 | 1016.9 |
| 20260505001459 | 76 | 59 | 3.5 | 12.2 | 0.00 | 0.00 | 0.00 | 100 | 1016.5 |
| 20260505001051 | 76 | 105 | 5.2 | 9.6 | 0.00 | 0.00 | 0.00 | 100 | 1016.7 |
| 20260505000551 | 76 | 59 | 3.5 | 12.2 | 0.00 | 0.00 | 0.00 | 100 | 1016.5 |
| 20260505000051 | 77 | 91 | 7.8 | 9.6 | 0.00 | 0.00 | 0.00 | 100 | 1016.3 |
| 20260505000011 | 77 | 116 | 7.0 | 8.7 | 0.00 | 0.00 | 0.00 | 100 | 1016.3 |
| 20260504235604 | 77 | 105 | 5.2 | 10.4 | 0.00 | 0.00 | 0.00 | 100 | 1016.3 |
| 20260504235551 | 77 | 116 | 7.0 | 8.7 | 0.00 | 0.00 | 0.00 | 100 | 1016.3 |
| 20260504235051 | 77 | 105 | 5.2 | 10.4 | 0.00 | 0.00 | 0.00 | 100 | 1016.3 |
| 20260504234944 | 78 | 91 | 7.8 | 8.7 | 0.00 | 0.00 | 0.00 | 100 | 1015.9 |
| 20260504234551 | 77 | 95 | 5.2 | 8.7 | 0.00 | 0.00 | 0.00 | 100 | 1016.2 |
| 20260504234051 | 78 | 57 | 2.6 | 7.8 | 0.00 | 0.00 | 0.00 | 100 | 1016.2 |
| 20260504233551 | 78 | 109 | 6.1 | 8.7 | 0.00 | 0.00 | 0.00 | 100 | 1016.0 |
| 20260504233051 | 78 | 91 | 7.8 | 8.7 | 0.00 | 0.00 | 0.00 | 100 | 1015.9 |
| 20260504233046 | 80 | 91 | 7.0 | 10.4 | 0.00 | 0.00 | 0.00 | 100 | 1015.9 |
| 20260504232600 | 79 | 92 | 5.2 | 8.7 | 0.00 | 0.00 | 0.00 | 100 | 1016.0 |
| 20260504232551 | 79 | 147 | 4.3 | 8.7 | 0.00 | 0.00 | 0.00 | 100 | 1015.9 |
| 20260504232051 | 79 | 92 | 5.2 | 8.7 | 0.00 | 0.00 | 0.00 | 100 | 1016.0 |
| 20260504231551 | 79 | 95 | 2.6 | 8.7 | 0.00 | 0.00 | 0.00 | 100 | 1015.9 |
| 20260504231456 | 79 | 136 | 3.5 | 7.8 | 0.00 | 0.00 | 0.00 | 100 | 1016.0 |
| 20260504231051 | 79 | 136 | 3.5 | 7.8 | 0.00 | 0.00 | 0.00 | 100 | 1016.0 |
| 20260504230552 | 80 | 91 | 7.0 | 10.4 | 0.00 | 0.00 | 0.00 | 100 | 1015.9 |
| 20260504230426 | 79 | 140 | 7.0 | 10.4 | 0.00 | 0.00 | 0.00 | 100 | 1015.8 |
| 20260504230052 | 79 | 140 | 7.0 | 10.4 | 0.00 | 0.00 | 0.00 | 100 | 1015.8 |
| 20260504230046 | 81 | 119 | 5.2 | 9.6 | 0.00 | 0.00 | 0.00 | 100 | 1015.6 |
| 20260504225552 | 80 | 120 | 3.5 | 10.4 | 0.00 | 0.00 | 0.00 | 100 | 1015.5 |
| 20260504225052 | 81 | 119 | 5.2 | 9.6 | 0.00 | 0.00 | 0.00 | 100 | 1015.6 |
| 20260504224812 | 81 | 78 | 6.1 | 13.0 | 0.00 | 0.00 | 0.00 | 100 | 1015.6 |
| 20260504224552 | 81 | 78 | 6.1 | 13.0 | 0.00 | 0.00 | 0.00 | 100 | 1015.6 |
| 20260504224052 | 82 | 122 | 5.2 | 7.8 | 0.00 | 0.00 | 0.00 | 100 | 1015.8 |
| 20260504223552 | 82 | 94 | 3.5 | 9.6 | 0.00 | 0.00 | 0.00 | 100 | 1015.8 |
| 20260504223337 | 82 | 97 | 5.2 | 11.3 | 0.00 | 0.00 | 0.00 | 100 | 1015.8 |
| 20260504223052 | 82 | 97 | 5.2 | 11.3 | 0.00 | 0.00 | 0.00 | 100 | 1015.8 |
| 20260504222553 | 83 | 90 | 3.5 | 13.0 | 0.00 | 0.00 | 0.00 | 100 | 1015.7 |
| 20260504222129 | 83 | 90 | 3.5 | 13.0 | 0.00 | 0.00 | 0.00 | 100 | 1015.7 |
| 20260504222052 | 83 | 90 | 3.5 | 13.0 | 0.00 | 0.00 | 0.00 | 100 | 1015.7 |
| 20260504221934 | 82 | 102 | 7.0 | 10.4 | 0.00 | 0.00 | 0.00 | 100 | 1015.8 |
| 20260504221552 | 82 | 102 | 7.0 | 10.4 | 0.00 | 0.00 | 0.00 | 100 | 1015.8 |
| 20260504221052 | 83 | 143 | 5.2 | 7.8 | 0.00 | 0.00 | 0.00 | 100 | 1015.7 |
| 20260504220714 | 83 | 74 | 4.3 | 9.6 | 0.00 | 0.00 | 0.00 | 100 | 1015.8 |
| 20260504220552 | 83 | 74 | 4.3 | 9.6 | 0.00 | 0.00 | 0.00 | 100 | 1015.8 |
| 20260504220315 | 83 | 40 | 0.9 | 7.8 | 0.00 | 0.00 | 0.00 | 100 | 1015.8 |
| 20260504220052 | 83 | 40 | 0.9 | 7.8 | 0.00 | 0.00 | 0.00 | 100 | 1015.8 |
| 20260504215654 | 83 | 74 | 7.0 | 9.6 | 0.00 | 0.00 | 0.00 | 100 | 1015.8 |
| 20260504215552 | 83 | 74 | 7.0 | 9.6 | 0.00 | 0.00 | 0.00 | 100 | 1015.8 |
| 20260504215412 | 84 | 15 | 7.8 | 10.4 | 0.00 | 0.00 | 0.00 | 100 | 1015.6 |
| 20260504215137 | 84 | 15 | 7.8 | 10.4 | 0.00 | 0.00 | 0.00 | 100 | 1015.6 |
| 20260504215052 | 84 | 15 | 7.8 | 10.4 | 0.00 | 0.00 | 0.00 | 100 | 1015.6 |
| 20260504214552 | 84 | 97 | 6.1 | 11.3 | 0.00 | 0.00 | 0.00 | 100 | 1015.7 |
| 20260504214052 | 84 | 87 | 9.6 | 15.6 | 0.00 | 0.00 | 0.00 | 100 | 1015.8 |
| 20260504213820 | 84 | 102 | 7.8 | 9.6 | 0.00 | 0.00 | 0.00 | 100 | 1015.7 |
| 20260504213552 | 84 | 102 | 7.8 | 9.6 | 0.00 | 0.00 | 0.00 | 100 | 1015.7 |
| 20260504213244 | 84 | 95 | 6.1 | 7.8 | 0.00 | 0.00 | 0.00 | 100 | 1015.7 |
| 20260504213052 | 85 | 81 | 6.1 | 7.8 | 0.00 | 0.00 | 0.00 | 100 | 1015.7 |
| 20260504212552 | 84 | 95 | 6.1 | 7.8 | 0.00 | 0.00 | 0.00 | 100 | 1015.7 |
| 20260504212530 | 84 | 101 | 2.6 | 7.0 | 0.00 | 0.00 | 0.00 | 100 | 1015.8 |
| 20260504212052 | 84 | 156 | 2.6 | 4.3 | 0.00 | 0.00 | 0.00 | 100 | 1015.7 |
| 20260504211552 | 84 | 163 | 3.5 | 5.2 | 0.00 | 0.00 | 0.00 | 100 | 1015.8 |
| 20260504211320 | 84 | 101 | 2.6 | 7.0 | 0.00 | 0.00 | 0.00 | 100 | 1015.8 |
| 20260504211052 | 84 | 101 | 2.6 | 7.0 | 0.00 | 0.00 | 0.00 | 100 | 1015.8 |
| 20260504210958 | 84 | 101 | 5.2 | 7.8 | 0.00 | 0.00 | 0.00 | 100 | 1015.7 |
| 20260504210726 | 84 | 101 | 5.2 | 7.8 | 0.00 | 0.00 | 0.00 | 100 | 1015.7 |
| 20260504210552 | 84 | 101 | 5.2 | 7.8 | 0.00 | 0.00 | 0.00 | 100 | 1015.7 |
| 20260504210052 | 83 | 99 | 7.0 | 8.7 | 0.00 | 0.00 | 0.00 | 100 | 1015.9 |
| 20260504205841 | 83 | 102 | 6.1 | 9.6 | 0.00 | 0.00 | 0.00 | 100 | 1015.8 |
| 20260504205552 | 83 | 102 | 6.1 | 9.6 | 0.00 | 0.00 | 0.00 | 100 | 1015.8 |
| 20260504205052 | 83 | 97 | 7.8 | 12.2 | 0.00 | 0.00 | 0.00 | 100 | 1015.8 |
| 20260504204552 | 85 | 70 | 10.4 | 13.0 | 0.00 | 0.00 | 0.00 | 100 | 1015.8 |
| 20260504204207 | 85 | 140 | 3.5 | 6.1 | 0.00 | 0.00 | 0.00 | 100 | 1015.9 |
| 20260504204052 | 85 | 140 | 3.5 | 6.1 | 0.00 | 0.00 | 0.00 | 100 | 1015.9 |
| 20260504203943 | 84 | 137 | 1.7 | 8.7 | 0.00 | 0.00 | 0.00 | 100 | 1016.0 |
| 20260504203552 | 83 | 119 | 0.0 | 7.0 | 0.00 | 0.00 | 0.00 | 100 | 1015.9 |
| 20260504203052 | 83 | 52 | 4.3 | 8.7 | 0.00 | 0.00 | 0.00 | 100 | 1016.0 |
| 20260504202825 | 84 | 61 | 6.1 | 10.4 | 0.00 | 0.00 | 0.00 | 100 | 1016.0 |
| 20260504202552 | 84 | 61 | 6.1 | 10.4 | 0.00 | 0.00 | 0.00 | 100 | 1016.0 |
| 20260504202304 | 85 | 95 | 3.5 | 10.4 | 0.00 | 0.00 | 0.00 | 100 | 1016.1 |
| 20260504202052 | 85 | 95 | 3.5 | 10.4 | 0.00 | 0.00 | 0.00 | 100 | 1016.1 |
| 20260504201552 | 84 | 64 | 7.0 | 13.9 | 0.00 | 0.00 | 0.00 | 100 | 1016.0 |
| 20260504201341 | 84 | 137 | 1.7 | 8.7 | 0.00 | 0.00 | 0.00 | 100 | 1016.0 |
| 20260504201052 | 84 | 137 | 1.7 | 8.7 | 0.00 | 0.00 | 0.00 | 100 | 1016.0 |
| 20260504201015 | 85 | 112 | 4.3 | 8.7 | 0.00 | 0.00 | 0.00 | 100 | 1016.8 |
| 20260504201008 | 86 | 146 | 3.5 | 6.1 | 0.00 | 0.00 | 0.00 | 100 | 1016.1 |
| 20260504200552 | 86 | 146 | 3.5 | 6.1 | 0.00 | 0.00 | 0.00 | 100 | 1016.1 |
| 20260504200052 | 83 | 71 | 3.5 | 7.8 | 0.00 | 0.00 | 0.00 | 100 | 1016.2 |
| 20260504195552 | 83 | 104 | 2.6 | 9.6 | 0.00 | 0.00 | 0.00 | 100 | 1016.3 |
| 20260504195052 | 82 | 56 | 1.7 | 8.7 | 0.00 | 0.00 | 0.00 | 100 | 1016.4 |
| 20260504194858 | 82 | 78 | 6.1 | 11.3 | 0.00 | 0.00 | 0.00 | 100 | 1016.4 |
| 20260504194552 | 82 | 78 | 6.1 | 11.3 | 0.00 | 0.00 | 0.00 | 100 | 1016.4 |
| 20260504194052 | 85 | 87 | 6.1 | 9.6 | 0.00 | 0.00 | 0.00 | 100 | 1016.4 |
| 20260504193850 | 85 | 7 | 4.3 | 8.7 | 0.00 | 0.00 | 0.00 | 100 | 1016.4 |
| 20260504193552 | 85 | 7 | 4.3 | 8.7 | 0.00 | 0.00 | 0.00 | 100 | 1016.4 |
| 20260504193507 | 83 | 170 | 5.2 | 10.4 | 0.00 | 0.00 | 0.00 | 100 | 1016.3 |
| 20260504193052 | 83 | 170 | 5.2 | 10.4 | 0.00 | 0.00 | 0.00 | 100 | 1016.3 |
| 20260504192939 | 83 | 122 | 6.1 | 10.4 | 0.00 | 0.00 | 0.00 | 100 | 1016.5 |
| 20260504192552 | 83 | 122 | 6.1 | 10.4 | 0.00 | 0.00 | 0.00 | 100 | 1016.5 |
| 20260504192226 | 85 | 67 | 5.2 | 8.7 | 0.00 | 0.00 | 0.00 | 100 | 1016.5 |
| 20260504192052 | 85 | 67 | 5.2 | 8.7 | 0.00 | 0.00 | 0.00 | 100 | 1016.5 |
| 20260504191552 | 84 | 119 | 2.6 | 7.0 | 0.00 | 0.00 | 0.00 | 100 | 1016.6 |
| 20260504191052 | 84 | 120 | 5.2 | 9.6 | 0.00 | 0.00 | 0.00 | 100 | 1016.7 |
| 20260504190835 | 85 | 112 | 4.3 | 8.7 | 0.00 | 0.00 | 0.00 | 100 | 1016.8 |
| 20260504190553 | 85 | 112 | 4.3 | 8.7 | 0.00 | 0.00 | 0.00 | 100 | 1016.8 |
| 20260504190313 | 84 | 49 | 4.3 | 11.3 | 0.00 | 0.00 | 0.00 | 100 | 1016.9 |
| 20260504190053 | 84 | 49 | 4.3 | 11.3 | 0.00 | 0.00 | 0.00 | 100 | 1016.9 |
| 20260504185821 | 85 | 144 | 5.2 | 7.8 | 0.00 | 0.00 | 0.00 | 100 | 1017.0 |
| 20260504185553 | 85 | 144 | 5.2 | 7.8 | 0.00 | 0.00 | 0.00 | 100 | 1017.0 |
| 20260504185331 | 83 | 137 | 5.2 | 10.4 | 0.00 | 0.00 | 0.00 | 100 | 1017.1 |
| 20260504185053 | 83 | 137 | 5.2 | 10.4 | 0.00 | 0.00 | 0.00 | 100 | 1017.1 |
| 20260504184725 | 84 | 113 | 8.7 | 11.3 | 0.00 | 0.00 | 0.00 | 100 | 1017.2 |
| 20260504184553 | 84 | 113 | 8.7 | 11.3 | 0.00 | 0.00 | 0.00 | 100 | 1017.2 |
| 20260504184053 | 85 | 142 | 4.3 | 7.8 | 0.00 | 0.00 | 0.00 | 100 | 1017.2 |
| 20260504184004 | 84 | 99 | 6.1 | 12.2 | 0.00 | 0.00 | 0.00 | 100 | 1017.3 |
| 20260504183553 | 84 | 99 | 6.1 | 12.2 | 0.00 | 0.00 | 0.00 | 100 | 1017.3 |
| 20260504183313 | 84 | 67 | 0.9 | 7.0 | 0.00 | 0.00 | 0.00 | 100 | 1017.4 |
| 20260504183053 | 84 | 67 | 0.9 | 7.0 | 0.00 | 0.00 | 0.00 | 100 | 1017.4 |
| 20260504182553 | 84 | 142 | 3.5 | 12.2 | 0.00 | 0.00 | 0.00 | 100 | 1017.6 |
| 20260504182511 | 83 | 99 | 5.2 | 8.7 | 0.00 | 0.00 | 0.00 | 100 | 1017.7 |
| 20260504182242 | 83 | 99 | 5.2 | 8.7 | 0.00 | 0.00 | 0.00 | 100 | 1017.7 |
| 20260504182053 | 83 | 99 | 5.2 | 8.7 | 0.00 | 0.00 | 0.00 | 100 | 1017.7 |
| 20260504181553 | 83 | 81 | 4.3 | 8.7 | 0.00 | 0.00 | 0.00 | 100 | 1017.7 |
| 20260504181502 | 84 | 5 | 0.9 | 9.6 | 0.00 | 0.00 | 0.00 | 100 | 1017.7 |
| 20260504181053 | 84 | 5 | 0.9 | 9.6 | 0.00 | 0.00 | 0.00 | 100 | 1017.7 |
| 20260504180553 | 85 | 116 | 4.3 | 13.0 | 0.00 | 0.00 | 0.00 | 100 | 1017.7 |
| 20260504180541 | 84 | 120 | 1.7 | 9.6 | 0.00 | 0.00 | 0.00 | 100 | 1017.8 |
| 20260504180053 | 84 | 120 | 1.7 | 9.6 | 0.00 | 0.00 | 0.00 | 100 | 1017.8 |
| 20260504175815 | 84 | 88 | 5.2 | 10.4 | 0.00 | 0.00 | 0.00 | 100 | 1017.9 |
| 20260504175553 | 84 | 88 | 5.2 | 10.4 | 0.00 | 0.00 | 0.00 | 100 | 1017.9 |
| 20260504175121 | 81 | 23 | 7.0 | 12.2 | 0.00 | 0.00 | 0.00 | 100 | 1018.2 |
| 20260504175053 | 83 | 172 | 1.7 | 7.0 | 0.00 | 0.00 | 0.00 | 100 | 1017.9 |
| 20260504175000 | 83 | 75 | 6.1 | 9.6 | 0.00 | 0.00 | 0.00 | 100 | 1018.0 |
| 20260504174553 | 83 | 75 | 6.1 | 9.6 | 0.00 | 0.00 | 0.00 | 100 | 1018.0 |
| 20260504174053 | 83 | 60 | 6.1 | 11.3 | 0.00 | 0.00 | 0.00 | 100 | 1018.1 |
| 20260504173818 | 83 | 64 | 6.1 | 13.9 | 0.00 | 0.00 | 0.00 | 100 | 1018.1 |
| 20260504173553 | 83 | 64 | 6.1 | 13.9 | 0.00 | 0.00 | 0.00 | 100 | 1018.1 |
| 20260504173447 | 81 | 23 | 7.0 | 12.2 | 0.00 | 0.00 | 0.00 | 100 | 1018.2 |
| 20260504173053 | 81 | 23 | 7.0 | 12.2 | 0.00 | 0.00 | 0.00 | 100 | 1018.2 |
| 20260504172553 | 83 | 39 | 7.0 | 13.9 | 0.00 | 0.00 | 0.00 | 100 | 1018.1 |
| 20260504172053 | 83 | 70 | 4.3 | 13.9 | 0.00 | 0.00 | 0.00 | 100 | 1018.3 |
| 20260504171553 | 84 | 104 | 5.2 | 11.3 | 0.00 | 0.00 | 0.00 | 100 | 1018.4 |
| 20260504171059 | 82 | 102 | 4.3 | 11.3 | 0.00 | 0.00 | 0.00 | 100 | 1018.5 |
| 20260504171053 | 84 | 68 | 2.6 | 11.3 | 0.00 | 0.00 | 0.00 | 100 | 1018.3 |
| 20260504171016 | 83 | 63 | 8.7 | 11.3 | 0.00 | 0.00 | 0.00 | 100 | 1018.4 |
| 20260504170802 | 82 | 102 | 4.3 | 11.3 | 0.00 | 0.00 | 0.00 | 100 | 1018.5 |
| 20260504170553 | 83 | 63 | 8.7 | 11.3 | 0.00 | 0.00 | 0.00 | 100 | 1018.4 |
| 20260504160404 | 81 | 97 | 6.1 | 15.6 | 0.00 | 0.00 | 0.00 | 100 | 1019.1 |
| 20260504151053 | 80 | 75 | 3.5 | 11.3 | 0.00 | 0.00 | 0.00 | 100 | 1019.2 |
| 20260504150554 | 79 | 66 | 7.0 | 13.0 | 0.00 | 0.00 | 0.00 | 100 | 1019.2 |
| 20260504141054 | 78 | 7 | 7.8 | 12.2 | 0.00 | 0.00 | 0.00 | 100 | 1019.0 |
| 20260504140655 | 77 | 81 | 10.4 | 13.0 | 0.00 | 0.00 | 0.00 | 100 | 1019.0 |
| 20260504140554 | 76 | 19 | 7.0 | 14.8 | 0.00 | 0.00 | 0.00 | 100 | 1019.0 |
| 20260504140134 | 76 | 68 | 7.0 | 13.9 | 0.00 | 0.00 | 0.00 | 100 | 1018.8 |
| 20260504130554 | 75 | 66 | 5.2 | 7.8 | 0.00 | 0.00 | 0.00 | 100 | 1018.5 |
| 20260504130525 | 72 | 47 | 3.5 | 9.6 | 0.00 | 0.00 | 0.00 | 100 | 1018.4 |
| 20260504130340 | 74 | 91 | 5.2 | 11.3 | 0.00 | 0.00 | 0.00 | 100 | 1018.4 |
| 20260504110655 | 65 | 43 | 1.7 | 6.1 | 0.00 | 0.00 | 0.00 | 100 | 1017.7 |
| 20260504110555 | 65 | 18 | 3.5 | 5.2 | 0.00 | 0.00 | 0.00 | 100 | 1017.8 |
| 20260504110439 | 65 | 46 | 3.5 | 7.8 | 0.00 | 0.00 | 0.00 | 100 | 1017.7 |
| 20260504100555 | 66 | 5 | 2.6 | 7.0 | 0.00 | 0.00 | 0.00 | 100 | 1017.3 |
| 20260504100215 | 66 | 50 | 3.5 | 5.2 | 0.00 | 0.00 | 0.00 | 100 | 1017.2 |
| 20260504081555 | 67 | 18 | 0.0 | 4.3 | 0.00 | 0.00 | 0.00 | 100 | 1017.2 |
| 20260504081509 | 67 | 32 | 0.9 | 4.3 | 0.00 | 0.00 | 0.00 | 100 | 1017.2 |
| 20260504081055 | 67 | 32 | 0.9 | 4.3 | 0.00 | 0.00 | 0.00 | 100 | 1017.2 |
| 20260504081011 | 67 | 25 | 3.5 | 5.2 | 0.00 | 0.00 | 0.00 | 100 | 1017.2 |
| 20260504080555 | 67 | 25 | 3.5 | 5.2 | 0.00 | 0.00 | 0.00 | 100 | 1017.2 |
| 20260504080510 | 67 | 29 | 0.0 | 5.2 | 0.00 | 0.00 | 0.00 | 100 | 1017.4 |
| 20260504050556 | 67 | 14 | 0.0 | 0.0 | 0.00 | 0.60 | 0.00 | 100 | 1018.4 |
| 20260504050008 | 68 | 22 | 0.0 | 0.0 | 0.00 | 0.60 | 0.60 | 100 | 1018.8 |
| 20260504045946 | 68 | 14 | 0.0 | 0.0 | 0.00 | 0.60 | 0.60 | 100 | 1018.6 |
| 20260504045556 | 68 | 14 | 0.0 | 0.0 | 0.00 | 0.60 | 0.60 | 100 | 1018.6 |
| 20260504045056 | 68 | 14 | 0.0 | 1.7 | 0.00 | 0.60 | 0.60 | 100 | 1018.8 |
| 20260504044556 | 68 | 22 | 0.0 | 0.0 | 0.00 | 0.60 | 0.60 | 100 | 1018.8 |
| 20260504044056 | 68 | 22 | 0.0 | 0.0 | 0.00 | 0.60 | 0.60 | 100 | 1018.8 |
| 20260504044048 | 69 | 16 | 0.0 | 0.0 | 0.00 | 0.60 | 0.60 | 100 | 1019.0 |
| 20260504043952 | 69 | 22 | 0.0 | 4.3 | 0.00 | 0.60 | 0.60 | 100 | 1018.9 |
| 20260504043556 | 69 | 22 | 0.0 | 4.3 | 0.00 | 0.60 | 0.60 | 100 | 1018.9 |
| 20260504043057 | 69 | 28 | 1.7 | 4.3 | 0.00 | 0.60 | 0.60 | 100 | 1018.9 |
| 20260504042638 | 69 | 16 | 0.0 | 3.5 | 0.00 | 0.60 | 0.60 | 100 | 1019.0 |
| 20260504042556 | 69 | 16 | 0.0 | 0.0 | 0.00 | 0.60 | 0.60 | 100 | 1019.0 |
| 20260504042337 | 69 | 30 | 0.9 | 2.6 | 0.00 | 0.60 | 0.60 | 100 | 1018.9 |
| 20260504042056 | 69 | 16 | 0.0 | 3.5 | 0.00 | 0.60 | 0.60 | 100 | 1019.0 |
| 20260504041556 | 69 | 30 | 0.9 | 2.6 | 0.00 | 0.60 | 0.60 | 100 | 1018.9 |
| 20260504041224 | 69 | 35 | 0.0 | 3.5 | 0.00 | 0.60 | 0.60 | 100 | 1018.9 |
| 20260504041056 | 69 | 35 | 0.0 | 3.5 | 0.00 | 0.60 | 0.60 | 100 | 1018.9 |
| 20260504040845 | 69 | 37 | 0.9 | 4.3 | 0.00 | 0.60 | 0.60 | 100 | 1019.1 |
| 20260504040556 | 69 | 37 | 0.9 | 4.3 | 0.00 | 0.60 | 0.60 | 100 | 1019.1 |
| 20260504040058 | 68 | 42 | 0.0 | 0.0 | 0.00 | 0.60 | 0.60 | 100 | 1019.3 |
| 20260504040056 | 70 | 45 | 1.7 | 5.2 | 0.00 | 0.60 | 0.60 | 100 | 1019.1 |
| 20260504035944 | 68 | 42 | 0.0 | 0.0 | 0.00 | 0.60 | 0.60 | 100 | 1019.3 |
| 20260504035556 | 69 | 61 | 2.6 | 3.5 | 0.00 | 0.60 | 0.60 | 100 | 1019.2 |
| 20260504035056 | 68 | 42 | 0.0 | 0.0 | 0.00 | 0.60 | 0.60 | 100 | 1019.3 |
| 20260504034813 | 69 | 42 | 0.0 | 0.0 | 0.00 | 0.60 | 0.60 | 100 | 1019.2 |
| 20260504034556 | 69 | 42 | 0.0 | 0.0 | 0.00 | 0.60 | 0.60 | 100 | 1019.2 |
| 20260504034147 | 69 | 42 | 0.0 | 1.7 | 0.00 | 0.60 | 0.60 | 100 | 1019.2 |
| 20260504034056 | 69 | 42 | 0.0 | 0.0 | 0.00 | 0.60 | 0.60 | 100 | 1019.2 |
| 20260504033837 | 69 | 67 | 0.9 | 1.7 | 0.00 | 0.60 | 0.60 | 100 | 1019.3 |
| 20260504033556 | 69 | 42 | 0.0 | 1.7 | 0.00 | 0.60 | 0.60 | 100 | 1019.2 |
| 20260504033056 | 69 | 67 | 0.9 | 1.7 | 0.00 | 0.60 | 0.60 | 100 | 1019.3 |
| 20260504032556 | 69 | 53 | 1.7 | 2.6 | 0.00 | 0.60 | 0.60 | 100 | 1019.2 |
| 20260504032056 | 69 | 82 | 0.9 | 3.5 | 0.00 | 0.60 | 0.60 | 100 | 1019.2 |
| 20260504032022 | 70 | 63 | 0.9 | 4.3 | 0.00 | 0.60 | 0.60 | 100 | 1019.1 |
| 20260504031557 | 70 | 63 | 0.9 | 4.3 | 0.00 | 0.60 | 0.60 | 100 | 1019.1 |
| 20260504031057 | 70 | 92 | 0.0 | 3.5 | 0.00 | 0.60 | 0.60 | 100 | 1019.2 |
| 20260504030839 | 70 | 97 | 0.9 | 2.6 | 0.00 | 0.60 | 0.60 | 100 | 1019.3 |
| 20260504030557 | 70 | 81 | 0.9 | 4.3 | 0.00 | 0.60 | 0.60 | 100 | 1019.3 |
| 20260504030057 | 70 | 97 | 0.9 | 2.6 | 0.00 | 0.60 | 0.60 | 100 | 1019.3 |
| 20260504025731 | 69 | 52 | 0.0 | 4.3 | 0.00 | 0.60 | 0.60 | 100 | 1019.3 |
| 20260504025557 | 70 | 66 | 1.7 | 4.3 | 0.00 | 0.60 | 0.60 | 100 | 1019.4 |
| 20260504025057 | 69 | 52 | 0.0 | 4.3 | 0.00 | 0.60 | 0.60 | 100 | 1019.3 |
| 20260504024557 | 69 | 112 | 2.6 | 3.5 | 0.00 | 0.60 | 0.60 | 100 | 1019.3 |
| 20260504024139 | 69 | 90 | 1.7 | 4.3 | 0.00 | 0.60 | 0.60 | 100 | 1019.1 |
| 20260504024057 | 69 | 115 | 1.7 | 2.6 | 0.00 | 0.60 | 0.60 | 100 | 1019.1 |
| 20260504023557 | 69 | 90 | 1.7 | 4.3 | 0.00 | 0.60 | 0.60 | 100 | 1019.1 |
| 20260504023136 | 69 | 80 | 0.0 | 2.6 | 0.00 | 0.60 | 0.60 | 100 | 1019.1 |
| 20260504023057 | 69 | 105 | 1.7 | 4.3 | 0.00 | 0.60 | 0.60 | 100 | 1019.0 |
| 20260504022819 | 70 | 146 | 0.0 | 3.5 | 0.00 | 0.60 | 0.60 | 100 | 1019.0 |
| 20260504022557 | 69 | 80 | 0.0 | 2.6 | 0.00 | 0.60 | 0.60 | 100 | 1019.1 |
| 20260504022107 | 69 | 142 | 1.7 | 2.6 | 0.00 | 0.60 | 0.60 | 100 | 1018.9 |
| 20260504022057 | 70 | 146 | 0.0 | 3.5 | 0.00 | 0.60 | 0.60 | 100 | 1019.0 |
| 20260504021557 | 69 | 142 | 1.7 | 2.6 | 0.00 | 0.60 | 0.60 | 100 | 1018.9 |
| 20260504021225 | 69 | 120 | 1.7 | 3.5 | 0.00 | 0.60 | 0.60 | 100 | 1018.9 |
| 20260504021057 | 69 | 120 | 1.7 | 3.5 | 0.00 | 0.60 | 0.60 | 100 | 1018.9 |
| 20260504021012 | 69 | 63 | 0.0 | 0.0 | 0.00 | 0.60 | 0.60 | 100 | 1018.8 |
| 20260504020639 | 69 | 63 | 0.0 | 0.0 | 0.00 | 0.60 | 0.60 | 100 | 1018.8 |
| 20260504020557 | 69 | 63 | 0.0 | 0.0 | 0.00 | 0.60 | 0.60 | 100 | 1018.8 |
| 20260504020304 | 69 | 63 | 0.0 | 0.0 | 0.00 | 0.60 | 0.60 | 100 | 1018.8 |
| 20260504020057 | 69 | 63 | 0.0 | 0.0 | 0.00 | 0.60 | 0.60 | 100 | 1018.8 |
| 20260504015727 | 69 | 63 | 0.0 | 0.0 | 0.00 | 0.60 | 0.60 | 100 | 1018.7 |
| 20260504015557 | 69 | 63 | 0.0 | 0.0 | 0.00 | 0.60 | 0.60 | 100 | 1018.8 |
| 20260504015057 | 69 | 63 | 0.0 | 0.0 | 0.00 | 0.60 | 0.60 | 100 | 1018.7 |